TimeAKST,TemperatureF,Dew PointF,Humidity,Sea Level PressureIn,VisibilityMPH,Wind Direction,Wind SpeedMPH,Gust SpeedMPH,PrecipitationIn,Events,Conditions,WindDirDegrees,DateUTC
12:53 AM,30.0,27.0,88,30.33,10.0,NE,3.5,-,N/A,,Clear,50,2014-01-26 09:53:00
1:53 AM,30.0,27.0,88,30.34,7.0,Calm,Calm,-,N/A,,Clear,0,2014-01-26 10:53:00
3:53 AM,28.9,26.1,89,30.32,10.0,NNE,3.5,-,N/A,,Clear,30,2014-01-26 12:53:00
4:53 AM,28.9,27.0,92,30.32,10.0,Calm,Calm,-,N/A,,Clear,0,2014-01-26 13:53:00
5:53 AM,28.9,27.0,92,30.32,10.0,Calm,Calm,-,N/A,,Clear,0,2014-01-26 14:53:00
6:53 AM,28.0,26.1,92,30.31,10.0,NE,3.5,-,N/A,,Clear,40,2014-01-26 15:53:00
7:53 AM,28.9,26.1,89,30.31,10.0,NE,3.5,-,N/A,,Clear,40,2014-01-26 16:53:00
8:53 AM,28.9,27.0,92,30.31,10.0,Calm,Calm,-,N/A,,Clear,0,2014-01-26 17:53:00
9:53 AM,28.9,26.1,89,30.31,10.0,NNE,6.9,-,N/A,,Clear,30,2014-01-26 18:53:00
10:53 AM,28.9,27.0,92,30.30,6.0,NE,4.6,-,N/A,,Clear,40,2014-01-26 19:53:00
11:53 AM,33.1,30.0,89,30.28,10.0,NE,4.6,-,N/A,,Clear,50,2014-01-26 20:53:00
12:53 PM,37.0,33.1,86,30.26,10.0,NE,5.8,-,N/A,,Clear,40,2014-01-26 21:53:00
1:53 PM,39.0,35.1,86,30.23,10.0,NNE,3.5,-,N/A,,Clear,20,2014-01-26 22:53:00
2:53 PM,37.9,33.1,83,30.22,10.0,Calm,Calm,-,N/A,,Clear,0,2014-01-26 23:53:00
3:53 PM,36.0,32.0,86,30.20,10.0,Calm,Calm,-,N/A,,Clear,0,2014-01-27 00:53:00
4:53 PM,36.0,32.0,86,30.19,10.0,Calm,Calm,-,N/A,,Clear,0,2014-01-27 01:53:00
5:53 PM,39.0,33.1,79,30.17,10.0,Calm,Calm,-,N/A,,Clear,0,2014-01-27 02:53:00
6:53 PM,46.9,28.9,50,30.16,10.0,North,15.0,31.1,N/A,,Clear,10,2014-01-27 03:53:00
7:53 PM,48.0,28.9,48,30.13,10.0,NE,20.7,26.5,N/A,,Clear,50,2014-01-27 04:53:00
8:53 PM,48.0,28.0,46,30.11,10.0,NE,23.0,33.4,N/A,,Clear,40,2014-01-27 05:53:00
9:53 PM,48.0,28.0,46,30.10,10.0,NNE,21.9,34.5,N/A,,Clear,30,2014-01-27 06:53:00
10:53 PM,48.0,27.0,44,30.09,10.0,NE,25.3,34.5,N/A,,Clear,40,2014-01-27 07:53:00
11:53 PM,48.0,27.0,44,30.08,10.0,NE,27.6,39.1,N/A,,Clear,40,2014-01-27 08:53:00